User: anonymous   Login
Location: Unspecified
(0.0000°N, 0.0000°E)
Time: 15:47:22
(UTC+02:00)
Language:

ASC 2 Rocket - Orbit

View from above orbital plane
View from above orbital plane
View from above satellite
View from above satellite

Ground track
Ground track

The orbit data is extracted from the following two-line orbital elements,

1 21228U 91028B   17234.95809314 +.00000239 +00000-0 +28294-4 0  9994
2 21228 023.9969 121.0697 1143033 206.2356 275.5008 12.53329502205938
Epoch (UTC): 22 August 2017 22:59:39
Eccentricity: 0.1143033
inclination: 23.9969°
perigee height: 556 km
apogee height: 2345 km
right ascension of ascending node: 121.0697°
argument of perigee: 206.2356°
revolutions per day: 12.53329502
mean anomaly at epoch: 275.5008°
orbit number at epoch: 20593

The dashed part of the orbit path shows where the satellite is in the earth's shadow,  

DLR